This is the latest recevied weather packets stored in our database for station/object KO6HRZ. If no packets are shown the sender has not sent any weather packets the latest 10 day(s).
| Time | Temp. | Humidity | Pressure | Rain* | Wind** | Luminosity | Snow |
|---|---|---|---|---|---|---|---|
| 1788140791 | 85° F | 35% | 756 mmHg | 0 in | - | 29 W/m² | - |
| 1788140189 | 87° F | 34% | 755.8 mmHg | 0 in | - | 33 W/m² | - |
| 1788139590 | 87° F | 35% | 755.9 mmHg | 0 in | - | 42 W/m² | - |
| 1788138990 | 87° F | 34% | 756 mmHg | 0 in | - | 97 W/m² | - |
| 1788138387 | 89° F | 33% | 756.2 mmHg | 0 in | - | 55 W/m² | - |
| 1788137782 | 89° F | 32% | 756.1 mmHg | 0 in | - | 66 W/m² | - |
| 1788137179 | 90° F | 33% | 756.1 mmHg | 0 in | - | 47 W/m² | - |
| 1788136577 | 91° F | 33% | 756.1 mmHg | 0 in | - | 252 W/m² | - |
| 1788135976 | 92° F | 35% | 756 mmHg | 0 in | - | 275 W/m² | - |
| 1788135373 | 92° F | 34% | 756.1 mmHg | 0 in | - | 191 W/m² | - |
| 1788134772 | 92° F | 35% | 756.3 mmHg | 0 in | - | 85 W/m² | - |
| 1788134170 | 93° F | 33% | 756.2 mmHg | 0 in | - | 53 W/m² | - |
| 1788133566 | 93° F | 32% | 756.2 mmHg | 0 in | - | 54 W/m² | - |
| 1788132961 | 94° F | 33% | 756.4 mmHg | 0 in | - | 397 W/m² | - |
| 1788132359 | 95° F | 30% | 756.4 mmHg | 0 in | - | 167 W/m² | - |
| 1788131757 | 94° F | 29% | 756.4 mmHg | 0 in | - | 116 W/m² | - |
| 1788131151 | 92° F | 33% | 756.6 mmHg | 0 in | - | 444 W/m² | - |
| 1788130547 | 93° F | 33% | 756.7 mmHg | 0 in | - | 573 W/m² | - |
| 1788129945 | 93° F | 36% | 756.6 mmHg | 0 in | - | 602 W/m² | - |
| 1788129345 | 93° F | 33% | 756.8 mmHg | 0 in | - | 630 W/m² | - |
| 1788128745 | 93° F | 36% | 756.9 mmHg | 0 in | - | 649 W/m² | - |
| 1788128143 | 93° F | 35% | 757 mmHg | 0 in | - | 667 W/m² | - |
| 1788127538 | 93° F | 34% | 757.2 mmHg | 0 in | - | 685 W/m² | - |
| 1788126937 | 90° F | 38% | 757.4 mmHg | 0 in | - | 700 W/m² | - |
| 1788126333 | 91° F | 38% | 757.5 mmHg | 0 in | - | 708 W/m² | - |
* Rain latest hour (hover to see other rain measurements)
** Current wind speed in m/s (hover to see current wind gust speed)